User: anonymous
Location: Roanoke
(37.2710°N, 79.9420°W)
Time: 13:28:14
(UTC-04:00)
Language:

Cosmos 1441 Rocket - Orbit

View from above orbital plane
View from above orbital plane
View from above satellite
View from above satellite

Ground track
Ground track

The orbit data is extracted from the following two-line orbital elements,

1 13819U 83010B   14258.76246700  .00002827  00000-0  16517-3 0  9404
2 13819 081.1163 250.9313 0036432 084.6952 275.8429 15.11019912721624
Epoch (UTC): 15 September 2014 18:17:57
Eccentricity: 0.0036432
inclination: 81.1163°
perigee height: 508 km
apogee height: 558 km
right ascension of ascending node: 250.9313°
argument of perigee: 84.6952°
revolutions per day: 15.11019912
mean anomaly at epoch: 275.8429°
orbit number at epoch: 72162

The dashed part of the orbit path shows where the satellite is in the earth's shadow,  

DLR